This demonstration page uses our WeatherBlox Daily Observations layout. Learn more.

Left ArrowRight Arrow

Hourly Observations for April 26, 2020

Temp ( °F °C ) Dew Point ( °F °C ) Humidity (%) Winds ( mph kmh ) Pressure ( in mb ) Visibility ( mi km ) Precip ( " mm )
12:52 am 00:52 Clear 48 8.9 44 6.7 86 86 Calm 30.09 1019 10 16 0.00 0.00
1:52 am 01:52 Clear 49 9.4 44 6.7 83 83 Calm 30.10 1019 10 16 0.00 0.00
2:52 am 02:52 Clear 49 9.4 44 6.7 83 83 SSW 3 6 30.09 1019 10 16 0.00 0.00
3:52 am 03:52 Clear 47 8.3 43 6.1 86 86 Calm 30.09 1019 10 16 0.00 0.00
4:52 am 04:52 Clear 45 7.2 43 6.1 93 93 Calm 30.11 1020 10 16 0.00 0.00
5:52 am 05:52 Clear 44 6.7 41 5 89 89 NNE 5 7 30.14 1021 10 16 0.00 0.00
6:52 am 06:52 Mostly Sunny 43 6.1 41 5 93 93 N 5 7 30.14 1021 8 13 0.00 0.00
7:52 am 07:52 Mostly Sunny 48 8.9 43 6.1 83 83 Calm 30.15 1021 10 16 0.00 0.00
8:52 am 08:52 Mostly Sunny 52 11.1 43 6.1 72 72 Calm 30.16 1021 10 16 0.00 0.00
9:52 am 09:52 Partly Cloudy 56 13.3 45 7.2 67 67 Calm 30.15 1021 10 16 0.00 0.00
10:52 am 10:52 Partly Cloudy 59 15 45 7.2 60 60 Calm 30.15 1021 10 16 0.00 0.00
11:52 am 11:52 Partly Cloudy 63 17.2 43 6.1 48 48 S 6 9 30.13 1020 10 16 0.00 0.00
12:52 pm 12:52 Mostly Cloudy 65 18.3 42 5.6 43 43 VRB 3 6 30.11 1020 10 16 0.00 0.00
1:52 pm 13:52 Mostly Cloudy 67 19.4 39 3.9 36 36 SSW 14 22 30.09 1019 10 16 0.00 0.00
2:52 pm 14:52 Mostly Cloudy 69 20.6 39 3.9 33 33 SW 8 13 30.08 1019 10 16 0.00 0.00
3:52 pm 15:52 Mostly Cloudy 69 20.6 42 5.6 38 38 S 13 20 30.05 1018 10 16 0.00 0.00
4:52 pm 16:52 Mostly Cloudy 68 20 40 4.4 36 36 S 14 22 30.04 1017 10 16 0.00 0.00
5:52 pm 17:52 Mostly Cloudy 67 19.4 43 6.1 42 42 S 16 26 30.03 1017 10 16 0.00 0.00
6:52 pm 18:52 Mostly Cloudy 66 18.9 43 6.1 43 43 S 13 20 30.04 1017 10 16 0.00 0.00
7:52 pm 19:52 Mostly Cloudy 65 18.3 42 5.6 43 43 SSE 10 17 30.02 1017 10 16 0.00 0.00
8:52 pm 20:52 Mostly Cloudy 64 17.8 44 6.7 48 48 SSE 12 19 30.02 1017 10 16 0.00 0.00
9:52 pm 21:52 Cloudy 62 16.7 44 6.7 52 52 SSE 12 19 30.02 1017 10 16 0.00 0.00
10:52 pm 22:52 Mostly Cloudy 60 15.6 43 6.1 53 53 SSE 10 17 30.01 1016 10 16 0.00 0.00
11:49 pm 23:49 Mostly Cloudy with Thunderstorms 61 16 43 6 52 52 SSE 10 17 29.99 1016 10 16 0.00 0.00
11:52 pm 23:52 Mostly Cloudy with Thunderstorms 60 15.6 43 6.1 53 53 SSE 10 17 29.99 1016 10 16 0.00 0.00

Powered by AerisWeather